CAPE
0 21 454 0 272 21 62 27 11 45 50 57 45 50 75 98 159 21 48 0 0 8 156 291 371 830 716 1309 541 660 1111 1308 1308 1365 1352 1379 1430 1404 1433 1389 1443 1218 1364 1362 1421 1503 1640 1584 1654
0 152 151 0 55 37 49 24 11 13 59 35 40 24 17 36 3 4 0 0 7 29 135 375 682 1047 947 1401 1180 1217 1401 1453 1451 1366 1350 1485 1444 1398 1206 1167 1272 1350 1434 1643 1618 1452 1494 1715 1807
131 724 0 5 102 41 32 25 0 41 102 53 20 1 0 0 0 0 0 0 26 117 296 394 724 1479 1129 1420 1221 1216 1198 1432 1070 1078 1233 1360 1463 1302 1282 1287 1342 1329 1488 1411 1717 1347 1255 1422 1395
592 848 821 148 105 54 25 5 9 54 30 21 27 62 87 4 0 0 193 97 181 238 365 768 996 1348 1207 1170 1096 1302 1549 1463 1696 1620 1376 966 1584 1569 1387 1452 1506 1654 1847 1584 1572 1656 1824 1218 1097
669 126 34 117 57 26 8 11 48 33 46 64 15 45 106 93 92 288 396 269 325 371 526 800 1513 1548 1393 996 901 1050 1293 1462 1656 1469 1364 1530 1287 1579 1462 1602 1603 1699 1680 1479 1084 895 971 850 625
249 0 0 43 52 13 28 25 25 44 0 78 36 32 38 60 434 383 618 344 265 347 392 792 1647 1542 1533 1136 1147 1461 1595 1606 1605 1512 1388 1463 1518 1230 1401 1527 1539 1559 1773 1778 1639 1540 1116 386 87
0 12 20 19 74 35 48 9 37 66 56 68 56 19 33 88 384 259 300 374 196 364 428 811 1202 1714 1531 1645 1562 1564 1559 1565 1530 1564 1715 1606 1509 1044 1078 1474 1432 1464 1493 1672 1778 1661 1637 1252 734
0 169 87 100 65 48 24 49 30 85 90 99 19 5 62 162 193 220 152 527 519 398 267 548 897 953 1187 1396 1595 1633 1459 1288 1534 1567 1216 866 866 763 862 1011 1266 1361 1414 1362 1322 1191 1260 1371 599
297 0 1 167 67 43 16 5 72 14 55 104 87 7 51 102 264 208 161 443 332 188 90 66 648 1010 1046 1301 1659 1674 1597 1149 1282 1187 1022 884 993 974 844 855 921 824 900 1042 751 785 955 994 1241
240 2 0 27 8 67 81 0 0 10 55 124 114 142 28 138 172 151 98 110 390 517 182 84 510 927 902 594 1416 1238 1079 763 635 1107 631 862 1101 225 105 530 1007 962 925 758 547 771 978 1105 1520
365 0 0 110 175 129 62 4 22 55 33 188 229 110 118 128 204 111 107 200 587 294 0 264 2 372 849 913 1354 1110 1087 929 374 361 1261 1160 823 596 704 525 491 516 621 644 710 846 924 1258 1505
471 406 223 58 65 97 138 60 156 24 27 222 166 69 172 158 221 71 92 365 348 738 504 772 163 194 913 1093 1261 1116 1059 105 223 723 1352 822 2 341 1078 1350 1513 1235 1179 1220 1047 1389 1351 1040 1024
230 532 240 33 160 138 76 3 114 70 81 141 134 96 122 260 63 54 103 560 509 703 726 969 1017 692 200 0 548 598 272 173 599 731 194 785 1021 808 817 1366 1263 1479 446 987 1215 1274 1297 794 649
1 543 259 168 282 228 148 167 163 6 23 92 37 56 134 237 70 43 107 155 419 534 883 995 1000 906 1018 805 946 832 329 252 429 1116 1338 1187 879 974 934 1273 1151 669 1110 1581 1273 1598 1323 1136 484
659 490 265 28 6 338 1 110 64 12 57 63 67 74 93 176 194 148 37 165 327 679 808 861 941 1404 899 950 412 450 141 327 808 1119 990 1114 1209 1148 1698 1549 1190 1487 1160 1391 1350 1521 1573 528 598
498 484 68 2 4 9 35 5 164 60 20 28 41 43 67 205 104 82 136 196 168 544 645 900 903 1152 1008 775 860 831 216 1009 217 595 959 925 1650 1546 1461 1586 636 272 792 1580 1522 1316 1175 355 487
19 9 1 110 4 109 133 110 111 139 36 27 64 147 41 143 241 216 177 281 288 437 522 789 865 943 838 992 838 1003 485 1232 425 736 847 1238 1180 1227 1637 488 0 0 43 253 1025 1042 765 426 666
8 0 9 103 363 341 149 79 238 123 92 34 60 109 50 114 257 350 318 99 442 439 483 779 921 1029 709 1349 1067 981 117 542 1252 796 1196 1354 1251 1009 423 785 0 0 0 119 1592 1707 1836 653 542
10 2 17 153 239 178 231 166 31 47 83 54 64 114 61 63 178 155 282 101 390 348 313 1169 807 763 847 1066 1135 1211 549 879 934 1631 1286 1261 1037 1309 1525 972 2 0 80 382 1792 1793 1964 1832 1132
2 17 156 206 232 110 125 14 47 2 15 101 86 94 72 96 46 165 141 53 362 441 371 1127 1006 1142 1210 1118 1168 1174 597 875 254 1221 1167 809 877 992 2032 1550 0 83 245 1122 1930 1961 1820 491 557
0 6 77 6 186 153 33 8 66 78 68 86 91 74 85 50 51 40 124 93 234 429 739 785 1094 1476 1167 1254 727 606 663 1418 1157 631 1233 959 844 1113 1345 1969 1372 1048 143 5 1487 1442 558 0 0
0 117 52 38 216 96 45 1 0 30 53 75 165 176 107 56 116 24 19 70 120 342 522 940 1279 1426 1161 1542 1295 990 432 848 715 454 614 989 938 1396 1171 1169 1567 1778 1093 520 1686 1648 1468 414 222
1 31 20 19 45 94 26 0 0 0 42 4 0 102 126 80 59 36 17 17 152 147 281 1122 981 917 1057 1195 1260 915 649 573 471 1225 996 1548 1017 1192 1361 1211 1196 1329 1393 1405 1387 1571 1432 1360 1587
0 19 102 33 17 0 44 25 0 0 1 32 295 151 140 74 85 47 37 59 113 268 142 704 1190 795 747 1060 912 699 949 257 229 803 1025 591 1033 1221 983 1348 893 1317 1324 1431 1737 1615 1828 1652 1438
0 0 19 20 59 116 123 14 6 0 5 40 279 283 149 335 37 35 31 27 94 207 297 791 922 976 1046 1132 1286 1145 1049 804 1027 997 605 734 832 915 1285 1213 1570 1329 1350 1461 1151 1242 1309 1112 980
2 13 35 73 42 2 69 16 17 11 38 84 135 411 212 190 107 28 32 44 108 194 343 748 1109 1106 952 1306 1204 1157 995 1010 915 1070 659 831 404 860 926 1109 1331 1554 1268 1085 1328 1147 1187 1092 688
0 87 97 79 0 2 39 6 0 61 103 144 70 322 361 137 123 4 64 159 139 301 201 806 1202 1261 1075 868 1167 812 941 1059 741 957 972 1007 195 735 99 25 741 1041 1154 1118 929 846 697 678 1043
2 10 34 52 0 43 68 0 0 1 21 174 31 27 28 107 184 135 54 96 166 373 313 382 1211 1397 1329 993 951 924 753 744 1109 1078 534 1089 890 157 367 553 1013 1215 1056 1068 1055 1298 1072 802 671
129 133 0 27 72 61 28 0 10 6 108 225 290 165 92 52 133 272 155 58 176 102 354 310 946 1391 1388 1068 856 574 733 1022 1101 1011 720 1075 1028 406 952 1156 1163 1414 1154 1117 1046 918 574 427 741
27 0 0 100 89 5 18 0 7 305 578 225 37 321 148 95 117 109 143 177 124 152 296 333 585 1117 1117 967 809 538 661 553 793 1070 1141 1366 973 966 1257 1095 1306 1055 1168 1032 1025 1014 1402 898 656
CIN
0 -304 -119 0 -29 -34 -2 -2 -26 -10 -9 -14 -50 -41 -17 -71 -17 -2 -14 0 0 -75 -47 -22 -14 -5 -1 0 -22 -3 0 0 0 0 -0 0 0 0 -0 0 0 -0 -0 -0 -0 0 -0 -0 0
0 -142 -95 -36 -53 -3 -3 -5 -3 -12 -3 -60 -5 -29 -32 -20 -47 -80 0 0 -60 -50 -65 -23 -15 -3 -2 -0 -1 -0 0 0 -0 0 -0 0 0 -0 -0 0 0 -0 -0 -0 -0 0 -0 -0 0
-272 -20 0 -103 -23 -3 -4 -1 0 -4 -12 -3 -3 -3 0 0 0 -0 0 0 -36 -37 -8 -43 -30 -0 -4 0 -1 -0 -0 -0 -0 -0 -1 -0 -0 -0 -1 0 0 0 -0 0 0 -0 -0 -2 -13
-40 -4 -4 -29 -4 -2 -5 -7 -3 -11 -5 -11 -2 -6 -13 -18 0 0 -27 -71 -83 -25 -46 -31 -15 -0 -5 -3 -3 -0 0 -0 -0 -0 -0 -4 0 0 0 -0 -0 0 0 0 0 0 0 -14 -32
-37 -64 -16 -16 -12 -2 -3 -2 -17 -44 -8 -2 -3 -3 -6 -8 -24 -17 -39 -49 -13 -7 -46 -24 -2 0 -0 -3 -4 -2 -0 -0 0 -0 -0 -0 -0 -0 0 0 0 -0 0 -0 -12 -35 -33 -56 -82
-30 0 -10 -10 -2 -1 -8 -10 -22 -37 0 -5 -3 -5 -3 -9 -10 -3 -16 -53 -45 -8 -40 -17 -0 0 0 -1 -2 -0 0 0 -0 -0 0 -0 -0 -4 -0 0 0 -0 -0 0 -3 -14 -42 -138 -200
0 -56 -23 -41 -2 -1 -61 -16 -11 -14 -30 -3 -22 -4 -3 -6 -27 -27 -4 -26 -74 -1 -30 -7 -0 -0 0 0 0 0 0 0 -0 -0 0 -3 -4 -19 -20 -3 -1 -1 -6 -9 -11 -20 -23 -52 -98
-11 -41 -52 -4 -23 -11 -65 -58 -3 -12 -22 -12 -22 -3 -4 -2 -5 -14 -33 -43 -32 -10 -8 -13 -7 -3 0 -0 0 0 -0 -16 -8 -11 -24 -40 -33 -36 -31 -27 -19 -16 -18 -31 -37 -56 -62 -64 -102
-37 0 -25 -9 -18 -1 -3 -1 -16 -3 -3 -28 -126 -28 -16 -4 -1 -19 -4 -12 -16 -22 -51 -83 -3 -1 -3 -2 -0 -1 -10 -21 -29 -29 -24 -27 -20 -12 -34 -24 -45 -48 -55 -53 -88 -87 -84 -99 -99
-48 -18 -10 -51 -62 -12 -21 0 0 -1 -6 -18 -6 -8 -11 -2 -2 -11 -5 -2 -5 -25 -343 -112 -38 -5 -3 -15 -11 -19 -17 -29 -20 -19 -16 -50 -21 -31 -99 -67 -49 -48 -62 -79 -107 -87 -101 -95 -77
-73 0 0 -36 -22 -23 -17 -4 -1 -3 -6 -26 -29 -2 -2 -3 -6 -2 -4 -2 -11 -50 0 -60 -25 -48 -10 -26 -18 -18 -25 -21 -14 -27 -4 -20 -34 -23 -39 -70 -91 -107 -90 -100 -96 -81 -93 -81 -69
-25 -27 -43 -60 -70 -49 -2 -12 -20 -15 -2 -15 -7 -11 -2 -2 -3 -1 -2 -8 -21 -30 -46 -17 -94 -83 -19 -14 -3 -13 -8 -27 -37 -21 -6 -29 -9 -76 -38 -35 -26 -27 -38 -51 -42 -6 -10 -20 -28
-74 -5 -35 -69 -27 -31 -23 -7 -8 -2 -3 -16 -2 -7 -6 -1 -6 -18 -16 -12 -17 -17 -18 -8 -12 -15 -102 0 -40 -18 -18 -22 -12 -10 -32 -19 -12 -7 -6 -7 -18 -12 -29 -22 -25 -16 -17 -45 -52
-57 -9 -42 -50 -38 -21 -61 -18 -11 -3 -3 -24 -2 -8 -8 -10 -4 -20 -8 -3 -4 -3 -9 -17 -8 -4 -32 -35 -19 -15 -18 -11 -22 -2 -17 -9 -4 -9 -11 -12 -21 -9 -13 -9 -7 -7 -13 -15 -69
-25 -17 -33 -58 -69 -15 -6 -40 -5 -8 -2 -4 -2 -4 -1 -4 -22 -4 -5 -4 -2 -12 -33 -20 -11 -5 -19 -15 -16 -61 -32 -7 -6 -10 -11 -12 -15 -11 -6 -16 -20 -7 -8 -12 -8 -10 -7 -29 -60
-2 -4 -22 -71 -84 -57 -61 -3 -13 -4 -3 -2 -2 -3 -7 -22 -32 -2 -2 -7 -8 -3 -7 -13 -8 -9 -11 -18 -17 -22 -17 -7 -13 -11 -19 -11 -6 -5 -19 -16 -75 -216 -142 -71 -17 -16 -6 -36 -50
-137 -42 -27 -41 -47 -49 -43 -10 -52 -34 -2 -1 -4 -18 -11 -17 -5 -13 -2 -2 -8 -6 -13 -4 -8 -9 -7 -9 -10 -18 -27 -14 -27 -10 -6 -2 -8 -14 -5 -56 0 -57 -105 -154 -75 -4 -5 -33 -16
-48 -4 -42 -56 -13 -8 -51 -27 -26 -72 -65 -3 -2 -40 -20 -5 -29 -10 -6 -17 -10 -13 -10 -2 -11 -7 -23 -3 -13 -21 -67 -32 -8 -9 -4 -5 -7 -3 -50 -55 0 0 0 -175 -47 -9 -6 -23 -11
-18 -23 -37 -8 -31 -7 -26 -15 -59 -84 -64 -15 -7 -19 -14 -24 -5 -11 -2 -12 -13 -17 -12 -6 -15 -15 -9 -5 -10 -11 -39 -13 -4 -10 -4 -25 -28 -2 -12 -47 -148 0 -140 -144 -13 -11 -14 -11 -10
-1 -3 -38 -26 -22 -32 -38 -50 -74 -21 -80 -38 -15 -1 -7 -17 -6 -7 -10 -37 -5 -5 -6 -8 -9 -5 -4 -8 -7 -11 -22 -11 -13 -7 -9 -14 -2 -6 -9 -12 0 -246 -137 -43 -9 -8 -33 -128 -135
0 -1 -31 -19 -17 -12 -41 -75 -51 -67 -62 -63 -14 -10 -5 -7 -3 -9 -10 -20 -5 -6 -7 -18 -14 -8 -15 -3 -29 -21 -25 -9 -7 -15 -7 -9 -1 -1 -6 -3 -25 -29 -109 -27 -23 -27 -61 0 0
0 -26 -21 -23 -18 -3 -40 -2 -15 -23 -9 -43 -29 -18 -4 -19 -5 -14 -7 -6 -17 -8 -8 -15 -8 -10 -11 -9 -7 -12 -20 -8 -8 -13 -18 -8 -7 -2 -4 -4 -1 -5 -40 -60 -7 -18 -30 -114 -80
-3 -19 -12 -10 -6 -20 -65 -1 0 0 -36 -14 0 -85 -18 -23 -3 -6 -6 -13 -14 -24 -16 -6 -6 -7 -3 -15 -12 -12 -8 -33 -45 -15 -10 -3 -11 -10 -5 -2 -1 -1 -6 -9 -16 -10 -15 -25 -15
0 -3 -2 -4 -6 0 -19 -15 0 0 -48 -86 -28 -4 -20 -21 -4 -24 -3 -20 -14 -17 -28 -12 -9 -17 -13 -10 -23 -16 -8 -91 -62 -11 -7 -10 -14 -17 -20 -2 -7 -3 -6 -8 -5 -12 -5 -17 -15
0 0 -4 -5 -4 -12 -69 -10 -58 0 -68 -68 -12 -6 -30 -14 -5 -2 -5 -8 -18 -9 -6 -18 -27 -22 -8 -11 -5 -13 -5 -6 -10 -6 -6 -5 -11 -9 -5 -9 -4 -10 -11 -9 -13 -12 -15 -10 -11
-6 -9 -7 -3 -11 -9 -62 -33 -22 -72 -55 -4 -96 -2 -20 -6 -10 -11 -6 -20 -35 -22 -6 -19 -29 -33 -15 -0 -6 -13 -12 -13 -10 -6 -11 -8 -26 -30 -50 -17 -3 -9 -8 -7 -2 -6 -6 -16 -14
0 -5 -38 -10 0 -2 -14 -19 0 -37 -8 -6 -13 -30 -5 -22 -12 -60 -5 -11 -23 -10 -14 -8 -30 -31 -16 -2 -2 -14 -13 -5 -10 -4 -10 -8 -22 -37 -50 -97 -18 -12 -8 -15 -11 -5 -6 -11 -3
-2 -42 -53 -10 0 -8 -24 0 0 -3 -19 -18 -48 -31 -25 -68 -58 -4 -5 -4 -7 -6 -11 -8 -23 -23 -8 -2 -3 -2 -17 -18 -10 -8 -22 -4 -31 -41 -272 -43 -9 -2 -3 -8 -7 -5 -4 -5 -13
-22 -37 0 -14 -4 -7 -5 0 -94 -61 -52 -9 -2 -7 -21 -78 -66 -8 -5 -5 -11 -8 -10 -15 -12 -9 -4 -2 -3 -5 -3 -0 -3 -4 -15 -2 -9 -53 -14 -5 -9 -3 -1 -3 -10 -17 -21 -21 -12
-118 0 0 -3 -44 -39 -5 -0 -48 -26 -1 -25 -75 -15 -121 -151 -92 -171 -145 -19 -10 -9 -16 -11 -17 -7 -7 -4 -2 -6 -3 -5 -3 -5 -1 -2 -9 -10 -1 -1 -6 -14 -4 -3 -5 -15 -3 -7 -18
Wind_Speed
17 16 11 18 18 23 30 30 20 28 26 24 24 21 20 22 9 14 18 23 25 23 24 25 16 7 6 9 6 4 5 9 2 1 2 8 7 8 8 10 13 17 17 18 19 18 30 25 26
18 14 9 20 20 29 29 28 28 25 24 25 18 20 22 22 20 23 23 28 29 30 31 29 18 11 5 9 8 5 6 3 3 1 3 5 7 10 12 11 10 9 9 12 18 25 29 29 27
18 17 24 19 21 27 26 27 26 23 19 21 26 24 23 25 26 24 27 28 23 25 25 27 30 18 7 10 7 4 0 2 1 3 6 7 9 10 11 10 7 4 6 17 9 27 28 28 26
18 19 21 21 27 27 26 25 25 24 24 23 24 24 26 24 26 27 22 16 3 25 24 16 29 23 16 4 6 7 3 4 6 6 8 8 10 8 9 7 4 1 3 12 25 25 29 28 23
18 20 7 19 26 24 24 23 23 5 21 26 24 25 28 26 27 25 23 27 28 24 24 25 26 20 22 10 7 11 10 10 7 8 7 10 11 9 9 6 4 6 6 17 5 23 23 23 21
15 12 15 4 25 23 22 24 23 23 21 23 23 24 25 24 26 24 26 26 28 26 22 25 26 22 18 18 16 11 9 8 9 9 8 9 12 11 9 5 4 3 1 25 21 21 24 23 22
15 19 22 17 21 21 22 21 20 22 26 23 23 24 24 23 23 26 23 19 15 24 23 25 26 22 20 16 15 13 12 10 10 9 10 11 12 11 10 6 2 8 18 27 23 21 22 23 22
23 16 14 9 17 21 23 23 20 21 22 24 24 21 24 23 23 24 21 24 27 26 21 25 26 27 24 19 13 15 15 14 15 18 21 24 20 15 13 7 12 21 23 20 21 22 22 23 24
14 14 17 7 19 21 21 21 21 20 26 12 8 23 25 24 24 21 25 25 13 5 24 2 26 24 16 19 17 19 21 24 28 28 29 29 26 24 27 8 22 23 25 23 23 23 23 23 22
14 10 19 17 12 5 19 21 22 23 21 22 24 25 25 24 24 26 24 23 16 10 9 12 19 25 27 14 25 24 25 26 25 26 16 21 21 16 27 27 26 25 25 24 23 22 22 21 20
8 16 24 17 6 20 18 20 22 21 21 19 21 25 24 25 20 24 24 23 13 14 18 25 15 17 11 21 27 25 26 26 21 20 11 23 2 14 22 24 26 26 25 24 22 20 20 21 21
13 16 15 15 16 12 13 13 18 12 21 25 26 24 24 25 26 23 25 19 19 19 21 23 23 27 19 24 25 27 27 21 25 17 7 15 16 22 23 25 25 25 25 23 23 20 20 18 18
16 16 10 11 13 11 9 14 10 18 16 19 22 25 24 23 25 17 25 22 25 24 26 21 22 26 20 26 25 26 25 25 5 6 5 18 18 15 16 15 20 24 24 23 23 25 23 24 22
11 15 14 12 14 10 9 12 14 17 19 20 24 25 25 27 23 22 23 24 24 25 19 16 14 23 25 23 28 11 14 24 22 20 24 18 14 18 18 22 25 22 23 23 19 21 22 23 12
15 15 15 14 13 13 12 22 16 18 22 21 24 24 24 18 20 25 24 23 26 21 19 19 24 12 18 23 24 19 26 13 8 9 14 16 12 18 18 20 22 20 17 17 16 20 18 17 9
11 13 15 17 10 12 11 24 15 19 20 21 21 21 21 12 24 11 24 23 26 22 19 25 21 23 26 26 23 15 18 15 14 20 19 18 20 17 21 16 13 13 14 16 23 23 21 13 14
18 18 24 15 9 13 7 16 9 25 19 21 19 22 20 22 11 19 27 21 24 15 20 26 23 26 19 24 17 17 20 14 7 20 19 17 21 24 23 14 9 15 18 18 22 21 18 14 6
20 20 25 6 7 6 5 19 8 15 25 18 22 21 19 20 23 19 20 10 15 16 23 26 20 21 26 23 18 8 17 19 21 15 20 19 21 22 18 13 11 4 20 20 20 14 15 17 18
14 11 14 10 13 11 10 4 23 32 26 6 29 16 19 19 20 20 22 18 13 13 21 3 14 23 22 24 23 23 26 22 22 17 20 6 24 17 14 11 12 13 27 26 13 16 15 18 12
18 20 15 17 16 17 18 17 15 18 35 32 32 23 22 17 17 18 21 19 20 18 20 3 10 23 25 24 19 19 23 23 23 18 18 20 18 17 9 12 21 22 19 19 11 15 16 16 17
22 24 18 20 23 18 16 21 19 25 38 33 35 33 23 10 17 17 21 20 19 19 16 12 5 16 28 25 23 22 22 21 19 22 23 21 18 18 9 1 14 17 14 16 13 13 16 18 18
23 16 22 19 14 25 14 25 23 18 26 37 36 38 9 16 22 17 17 17 17 17 18 14 12 17 26 26 24 22 25 22 21 23 18 17 20 18 19 15 14 13 16 16 14 15 16 15 14
27 18 28 30 29 20 19 24 23 23 29 14 45 41 38 34 11 5 16 14 13 13 13 11 10 10 27 28 26 19 20 16 21 18 13 14 19 19 20 18 18 17 17 16 17 19 20 21 21
26 22 25 30 27 36 27 21 22 16 32 26 38 33 34 37 23 22 11 12 10 11 11 10 8 8 25 29 27 22 10 15 23 23 21 20 19 18 19 14 11 17 19 20 19 20 20 21 22
12 21 31 34 34 29 14 25 28 6 23 24 39 19 41 40 10 11 12 10 9 10 10 10 8 5 8 18 24 23 17 23 24 23 22 21 20 18 22 20 15 17 17 17 21 21 19 18 18
14 25 31 31 30 27 23 26 24 3 25 16 9 24 18 43 18 25 11 11 9 10 8 9 9 6 6 17 7 30 28 28 27 24 23 19 19 17 14 20 2 10 20 20 20 18 17 20 20
28 23 28 21 25 36 21 19 16 22 19 16 19 28 18 24 27 25 12 11 9 11 8 6 8 6 8 14 7 13 28 29 27 24 25 17 16 22 24 24 22 19 21 21 22 21 20 22 15
28 20 30 28 29 33 19 20 21 27 13 20 15 24 24 32 37 27 14 11 10 10 8 6 8 7 7 10 4 2 8 29 29 26 20 19 11 20 12 15 22 23 24 23 23 22 22 23 25
19 20 24 27 29 27 26 23 14 11 8 11 15 19 20 17 46 39 23 13 11 10 9 8 6 6 3 5 6 5 6 18 30 29 5 22 14 6 20 20 18 24 24 22 24 25 25 27 27
13 24 34 32 27 22 23 26 21 19 13 11 14 15 12 18 26 27 28 28 15 12 10 9 7 7 4 4 3 2 3 7 8 19 23 12 15 18 20 20 20 22 23 23 19 19 26 27 28
Wind_Direction
151 161 159 293 160 117 82 71 34 63 56 55 73 62 62 124 308 50 76 83 86 78 82 88 58 27 28 42 38 32 40 46 144 118 47 38 32 32 31 35 39 45 46 49 52 50 88 66 113
167 181 316 124 128 87 79 66 82 48 42 47 19 33 34 44 64 83 88 99 98 103 111 100 63 51 40 46 41 40 42 53 45 59 42 32 33 39 39 38 31 27 29 39 49 66 89 105 125
167 145 74 92 117 78 70 66 68 52 20 30 43 43 54 70 79 84 95 101 88 94 86 87 109 80 46 47 190 190 153 186 39 25 28 28 37 39 39 33 23 17 185 86 35 75 81 113 126
184 161 149 113 82 63 67 64 77 77 60 52 57 48 64 70 84 90 80 66 86 133 80 62 111 82 64 34 202 199 209 31 30 27 26 29 36 34 34 27 15 14 20 41 132 133 111 117 143
192 278 231 55 72 61 54 57 53 41 38 74 65 61 78 78 87 89 84 103 116 86 83 91 95 77 82 50 46 50 46 41 32 29 23 34 41 36 31 19 7 12 20 48 184 140 142 140 146
297 352 180 113 70 54 47 62 97 71 84 82 66 69 76 84 92 86 100 103 109 100 81 93 97 85 73 72 65 52 43 39 37 33 26 32 44 42 33 10 3 358 309 76 151 148 137 140 142
339 156 147 156 63 52 51 48 38 85 105 91 85 79 88 89 85 107 102 80 171 94 84 97 100 85 79 65 61 56 53 47 43 39 42 44 44 45 38 21 319 197 164 111 144 150 146 141 143
94 194 229 345 41 87 67 65 39 74 86 96 89 91 100 100 94 113 82 103 111 117 84 97 101 107 93 72 54 62 62 60 64 74 83 89 73 59 57 31 197 165 151 165 154 148 147 143 142
44 60 189 281 84 86 71 56 65 69 99 39 226 99 108 106 102 87 101 102 52 46 105 236 104 102 67 77 70 77 85 95 117 131 140 124 97 93 124 219 170 165 145 156 149 150 150 150 152
9 206 205 182 238 53 54 68 86 95 89 101 107 100 103 106 110 115 106 106 75 51 145 219 166 99 115 59 106 104 107 160 163 153 118 187 179 179 130 149 160 160 159 153 157 162 161 164 166
128 54 177 155 294 136 68 75 87 95 100 84 100 102 108 120 99 124 112 104 65 71 201 114 91 180 58 97 156 154 147 160 186 188 200 149 286 198 171 160 161 160 162 166 170 173 173 171 164
223 23 110 251 99 295 50 26 25 326 102 110 114 108 112 127 133 111 115 89 86 91 91 119 91 143 83 158 161 151 161 185 159 192 240 206 102 168 184 179 167 163 157 167 167 176 173 179 177
313 16 354 333 320 327 330 57 278 63 69 92 101 113 121 124 135 91 119 98 109 108 122 84 91 130 94 144 161 170 175 170 247 32 47 196 200 203 203 208 198 184 164 167 172 164 166 160 160
130 12 15 322 293 303 263 246 54 69 92 97 113 118 128 147 116 116 110 115 109 110 91 75 65 115 126 154 147 225 215 173 187 101 130 187 211 195 194 183 179 190 183 183 200 185 172 166 212
35 33 15 357 306 328 16 197 91 91 107 107 121 126 117 102 207 127 127 117 135 100 95 90 114 66 179 168 167 84 165 221 241 258 227 209 228 204 209 208 205 210 216 216 213 195 199 151 57
71 27 332 337 333 322 352 200 136 115 111 121 115 115 112 85 132 76 126 122 136 114 92 123 102 111 147 160 172 212 200 221 241 196 195 203 195 212 208 223 250 242 225 216 181 185 189 217 69
321 310 289 332 39 356 333 289 102 206 116 131 117 124 114 127 124 111 168 119 130 94 109 168 110 133 193 167 198 166 190 224 277 204 200 208 195 204 224 246 275 238 226 230 211 207 224 251 299
308 314 320 103 44 46 42 266 317 247 235 127 138 125 118 124 124 119 125 100 98 102 141 141 108 112 141 179 187 263 203 197 202 219 198 202 206 214 251 269 351 27 222 224 203 231 243 234 231
321 335 328 95 41 12 2 309 273 239 230 201 194 122 128 131 125 122 127 114 97 102 128 319 96 126 121 166 133 132 165 180 184 219 207 355 199 244 271 266 298 247 197 185 207 228 255 246 336
302 299 312 336 349 340 327 313 297 249 214 216 182 150 141 122 122 120 125 124 121 116 126 84 90 136 155 183 207 193 186 193 182 215 226 223 244 252 319 260 85 161 230 223 239 242 288 310 332
294 288 300 306 312 322 327 308 291 259 223 222 190 191 154 143 131 124 134 130 123 122 118 115 93 159 181 191 181 183 190 196 209 193 197 222 247 252 10 9 59 137 355 215 245 311 312 320 320
289 304 299 301 312 287 321 296 306 275 250 232 223 201 162 140 151 134 129 131 129 125 125 123 119 132 168 196 194 195 178 195 194 196 238 242 223 252 253 299 316 336 104 175 315 312 318 348 8
288 312 278 285 282 296 299 297 311 271 246 240 229 213 203 193 151 199 135 131 131 124 122 122 122 127 179 184 200 234 228 268 218 227 92 265 233 236 231 268 268 244 260 291 293 295 312 305 341
293 301 285 272 280 263 278 290 308 304 243 242 192 177 176 191 164 155 146 137 136 130 125 127 124 128 176 194 186 154 276 125 197 177 180 160 162 163 182 184 67 303 283 291 280 302 293 300 311
319 296 273 260 257 270 297 283 279 14 246 248 193 178 188 198 220 200 148 148 151 145 135 133 129 124 136 154 168 173 143 171 189 214 211 238 246 263 209 214 312 292 201 243 282 289 262 257 268
319 279 267 267 258 277 284 284 287 56 240 260 227 229 188 205 237 167 167 159 163 157 157 142 137 122 135 155 139 213 226 212 216 223 237 269 269 297 302 250 226 44 252 252 254 246 239 297 321
263 285 278 274 258 271 279 307 309 285 286 267 259 241 225 234 237 235 184 175 176 163 161 158 145 136 135 151 143 152 233 227 225 244 236 288 300 271 252 248 243 311 298 254 276 263 255 263 232
286 304 264 259 257 261 276 276 287 249 283 270 272 249 248 240 236 234 190 192 184 171 172 182 152 147 141 148 159 205 151 206 228 246 270 275 321 289 21 173 244 278 281 277 284 265 262 279 271
318 287 272 257 270 263 256 255 304 240 92 283 289 272 254 234 211 228 245 212 199 212 186 183 175 164 174 152 155 148 152 173 225 234 112 242 310 32 202 251 219 288 294 314 300 280 261 278 279
344 282 257 255 260 274 277 263 310 319 352 1 329 321 288 252 242 248 250 245 219 223 206 194 188 181 210 212 249 191 176 155 158 182 271 314 311 302 299 245 315 306 303 309 338 338 307 301 281